Weather in Zhemchuzhnaya

Russia / Murmansk Oblast     66°55′21″N   32°12′33″E
temp.,
°C
wind,
m/s
gust,
m/s
humid.,
%
clouds,
%
prec.,
mm/h
press.,
hPa
HPBL,
m
28 october, thu
thu2800:00−12nnw229887 0.0 100851
03:00−10nnw229789 0.0 101070
06:00−10nnw129887 0.0 101267
09:00−10ne1198100 0.0 101341
12:00−2se4788100 0.1 1014701
15:00−2sse41082100 0.1 1013659
18:00−2sse61295100 1.4 1011878
21:00−2sse61296100 5.2 1008808
29 october, fri
fri2900:00−1se3797100 0.9 1006423
03:000se2499100 1.8 1004242
06:00+1e12100100 0.6 100297
09:00+1se11100100 1.6 100151
12:00+2ese11100100 0.3 100046
15:00+2se00100100 1.3 99830
18:00+1nw11100100 2.8 99831
21:00+1wnw1210099 3.0 99959
30 october, sat
sat3000:00+1nw2299100 0.0 100247
03:00−1wnw2298100 0.0 100443
06:00−3nw2199100 0.0 100637
09:00−3nnw1199100 0.0 100836
12:000sse1195100 0.0 100977
15:00+1se1299100 0.0 100986
18:00+1ese2399100 1.3 100791
21:00+2se12100100 1.8 100653
31 october, sun
sun3100:00+1s11100100 0.1 100450
03:00+2ssw13100100 1.8 100278
06:00+2wsw26100100 1.0 1002120
09:00+2w27100100 1.6 1003182
12:00+2wnw24100100 0.2 1005102
15:00+2wnw23100100 0.2 100868
18:00+1nw11100100 0.0 100940
21:00+1n11100100 0.1 101133
1 november, mon
mon100:00+1e1198100 0.1 101141
03:00+2ese3798100 0.1 1011275
06:00+2ese51096100 0.1 1010497
09:00+2ese61193100 0.2 1010618
12:00+2ese61399100 1.3 1010729
15:00+2ese61299100 2.9 1010716
18:00+1e51299100 2.0 1011628
21:00+1e41097100 2.4 1012516